Tracking 19246 objects as of 20-Aug-2018
HD Live streaming from Space Station
objects crossing your sky now

ELECTRON R/B

Track ELECTRON R/B now!
10-day predictions


NORAD ID: 43166
Int'l Code: 2018-010D
Perigee: 287.2 km
Apogee: 454.4 km
Inclination: 82.9 °
Period: 91.8 minutes
Semi major axis: 6741 km
RCS: Unknown
Launch date: January 21, 2018
Source: New Zealand (NZ)
Launch site: Rocket Lab Launch Complex (RLLC)

ELECTRON R/B
Note: This is a ROCKET BODY
aabbcc
Your satellite tracking list
Your tracking list is empty




NASA's NSSDC Master Catalog

Two Line Element Set (TLE):
1 43166U 18010D   18231.68064584  .00047148 -56911-6  26883-3 0  9999
2 43166  82.9076 289.0339 0124006 154.0265 206.7295 15.68352037 32842
Source of the keplerian elements: AFSPC